Weather History for San Jose, Costa Rica

Change the Weather History Date:

Sunday, October 2, 2011

  Actual Average Record
Temperature  
Mean Temperature 72 °F -  
Max Temperature 80 °F 78 °F 86 °F (2006)
Min Temperature 63 °F 64 °F 62 °F (2013)
Cooling Degree Days 6    
Growing Degree Days 22 (Base 50)    
Moisture  
Dew Point 69 °F    
Average Humidity 95    
Maximum Humidity 100    
Minimum Humidity 67    
Precipitation  
Precipitation 0.12 in 0.42 in - ()
Sea Level Pressure  
Sea Level Pressure 29.97 in    
Wind  
Wind Speed 4 mph ()    
Max Wind Speed 10 mph    
Max Gust Speed -    
Visibility 7.1 miles    
Events Fog , Rain , Thunderstorm    
Averages and records for this station are not official NWS values.
T = Trace of Precipitation, MM = Missing Value Source: Averaged Metar Reports

Daily Weather History Graph

Daily Weather History Graph

Search for Another Location

Airport:

Trip Planner

Search our weather history database for the weather conditions in past years. The results will help you decide how hot, cold, wet, or windy it might be!

Date:

Astronomy

Oct. 02, 2011 Rise Set
Actual Time 5:25 AM CST 5:26 PM CST
Civil Twilight 5:04 AM CST 5:47 PM CST
Nautical Twilight 4:40 AM CST 6:12 PM CST
Astronomical Twilight 4:15 AM CST 6:36 PM CST
Moon 10:30 AM CST (10/2) 10:23 PM CST (10/2)
Length of Visible Light 12h 43m
Length of Day
12h 01m
Waxing Crescent, 35% of the Moon is Illuminated
Oct 2
Waxing Crescent
Oct 3
First Quarter
Oct 11
Full
Oct 19
Last Quarter
Oct 26
New

Hourly Weather History & Observations

Time (CST) Temp. Dew Point Humidity Pressure Visibility Wind Dir Wind Speed Gust Speed Precip Events Conditions
12:00 AM 68 °F 68 °F 100% 29.85 in 12 mi East 9.2 mph - - Rain Light Drizzle
12:00 AM 68.0 °F 68.0 °F 100% 30.01 in 6.2 mi East 9.2 mph - N/A   Light Drizzle
1:00 AM 68.0 °F 68.0 °F 100% 30.00 in 6.2 mi East 3.5 mph - N/A   Light Drizzle
2:00 AM 66.2 °F 66.2 °F 100% 29.98 in - ESE 2.3 mph - N/A   Clear
3:00 AM 66 °F 66 °F 100% 29.81 in 12 mi Calm Calm - -   Overcast
3:00 AM 66.2 °F 66.2 °F 100% 29.96 in - Calm Calm - N/A   Clear
4:00 AM 66.2 °F 66.2 °F 100% 29.97 in - ENE 3.5 mph - N/A   Clear
5:00 AM 66.2 °F 66.2 °F 100% 29.98 in - Calm Calm - N/A   Clear
6:00 AM 66 °F 66 °F 100% 29.88 in 12 mi Calm Calm - -   Overcast
6:00 AM 66.2 °F 66.2 °F 100% 30.01 in - Calm Calm - N/A   Clear
7:00 AM 68.0 °F 68.0 °F 100% 30.04 in 6.2 mi Calm Calm - N/A   Scattered Clouds
8:00 AM 73.4 °F 69.8 °F 88% 30.05 in - ESE 2.3 mph - N/A   Clear
9:00 AM 77 °F 68 °F 67% 29.87 in 12 mi Calm Calm - -  
9:00 AM 77.0 °F 68.0 °F 74% 30.05 in 6.2 mi Calm Calm - N/A   Unknown
10:00 AM 78.8 °F 68.0 °F 69% 30.04 in 6.2 mi WSW 4.6 mph - N/A   Scattered Clouds
11:00 AM 78.8 °F 71.6 °F 78% 30.02 in 6.2 mi SW 10.4 mph - N/A   Scattered Clouds
12:00 PM 77 °F 73 °F 85% 29.83 in 12 mi SW 9.2 mph - -   Scattered Clouds
12:00 PM 77.0 °F 73.4 °F 89% 30.00 in 6.2 mi SW 9.2 mph - N/A   Scattered Clouds
12:30 PM 73.4 °F 71.6 °F 94% 29.99 in 6.2 mi SW 9.2 mph - N/A Rain , Thunderstorm Thunderstorms and Rain
1:00 PM 73.4 °F 73.4 °F 100% 29.98 in 6.2 mi WSW 8.1 mph - N/A Rain , Thunderstorm Thunderstorms and Rain
2:00 PM 71.6 °F 71.6 °F 100% 29.96 in 3.7 mi SW 4.6 mph - N/A Rain , Thunderstorm Light Thunderstorms and Rain
3:00 PM 70 °F 70 °F 99% 29.79 in 2 mi West 4.6 mph - - Rain Light Rain
3:00 PM 69.8 °F 69.8 °F 100% 29.95 in 2.5 mi West 4.6 mph - N/A Rain Light Rain
4:00 PM 69.8 °F 69.8 °F 100% 29.97 in 5.0 mi Calm Calm - N/A Fog , Rain Light Rain
5:00 PM 69.8 °F 69.8 °F 100% 29.99 in 6.2 mi Calm Calm - N/A Fog , Rain Patches of Fog
6:00 PM 70 °F 70 °F 99% 29.82 in 12 mi ESE 4.6 mph - - Rain Light Rain
6:00 PM 69.8 °F 69.8 °F 100% 30.02 in 6.2 mi ESE 4.6 mph - N/A Rain Light Rain
7:00 PM 69.8 °F 69.8 °F 100% 30.04 in 6.2 mi Calm Calm - N/A Rain Light Rain
8:00 PM 69.8 °F 69.8 °F 100% 30.06 in 6.2 mi East 5.8 mph - N/A Rain Light Rain
9:00 PM 69.8 °F 69.8 °F 100% 30.06 in 6.2 mi ENE 4.6 mph - N/A Rain Light Rain
10:00 PM 68.0 °F 68.0 °F 100% 30.05 in 6.2 mi Calm Calm - N/A Rain Light Rain
11:00 PM 68.0 °F 68.0 °F 100% 30.05 in - ENE 4.6 mph - N/A   Clear